User: anonymous   Login
Location: Heidgraben
(53.7081°N, 9.6576°E)
Time: 08:01:33
(UTC+00:00)
Language:

Cosmos 158 Rocket - Orbit

View from above orbital plane
View from above orbital plane
View from above satellite
View from above satellite

Ground track
Ground track

The orbit data is extracted from the following two-line orbital elements,

1  2802U 67045B   20266.03655909  .00000065  00000-0  26753-4 0  9995
2  2802  74.0105 105.8871 0067355 233.9909 125.4994 14.43775395801126
Epoch (UTC): 22 September 2020 00:52:38
Eccentricity: 0.0067355
inclination: 74.0105°
perigee height: 698 km
apogee height: 794 km
right ascension of ascending node: 105.8871°
argument of perigee: 233.9909°
revolutions per day: 14.43775395
mean anomaly at epoch: 125.4994°
orbit number at epoch: 80112

The dashed part of the orbit path shows where the satellite is in the earth's shadow,  

DLR